Location: Losili
(4.4086°N, 32.7049°E)
Time: 05:25:47
(UTC+00:00)

Cosmos 1371 Rocket - Pass Details

Date: 18 September 2019
Orbit: 753 x 790 km, 74.0° (Epoch: 19 October)

Event Time Altitude Azimuth Distance (km) Brightness Sun altitude
Rises 16:57:14 0° 198° (SSW) 3,216 7.4 -18.3°
Reaches altitude 10° 16:59:37 10° 201° (SSW) 2,294 6.7 -18.9°
Maximum altitude 17:04:46 65° 282° (WNW) 844 4.4 -20.1°
Drops below altitude 10° 17:09:58 10° 4° (N) 2,313 6.5 -21.4°
Sets 17:12:23 0° 7° (N) 3,244 7.2 -22.0°
